Weather History for KBFW - April, 2013

Change the Weather History Date:

Thursday, April 4, 2013

  Actual Average Record
Temperature  
Mean Temperature 34 °F -  
Max Temperature 44 °F 38 °F 53 °F (2008)
Min Temperature 24 °F 20 °F 10 °F (2002)
Degree Days  
Heating Degree Days 31    
Moisture  
Dew Point 16 °F    
Average Humidity 48    
Maximum Humidity 80    
Minimum Humidity 21    
Precipitation  
Precipitation 0.00 in - - ()
Sea Level Pressure  
Sea Level Pressure 29.97 in    
Wind  
Wind Speed 3 mph (WNW)    
Max Wind Speed 13 mph    
Max Gust Speed 22 mph    
Visibility 10 miles    
Events      
Averages and records for this station are not official NWS values.
T = Trace of Precipitation, MM = Missing Value Source: NWS Daily Summary

Daily Weather History Graph

Daily Weather History Graph

Search for Another Location

Airport or City:

Trip Planner

Search our weather history database for the weather conditions in past years. The results will help you decide how hot, cold, wet, or windy it might be!

Date:

Astronomy

Apr. 04, 2013 Rise Set
Actual Time 6:38 AM CDT 7:39 PM CDT
Civil Twilight 6:06 AM CDT 8:11 PM CDT
Nautical Twilight 5:29 AM CDT 8:48 PM CDT
Astronomical Twilight 4:50 AM CDT 9:28 PM CDT
Moon 3:27 AM CDT (4/4) 1:37 PM CDT (4/4)
Length of Visible Light 14h 04m
Length of Day
13h 01m
Waning Crescent, 33% of the Moon is Illuminated
Apr 4
Waning Crescent
Apr 10
New
Apr 18
First Quarter
Apr 25
Full
May 2
Last Quarter

Hourly Weather History & Observations

Time (CDT) Temp. Windchill Dew Point Humidity Pressure Visibility Wind Dir Wind Speed Gust Speed Precip Events Conditions
12:13 AM 35.6 °F 29.2 °F 23.0 °F 60% 29.91 in 10.0 mi SW 8.1 mph 17.3 mph N/A   Mostly Cloudy
12:33 AM 35.6 °F 31.7 °F 23.0 °F 60% 29.90 in 10.0 mi WSW 4.6 mph 16.1 mph N/A   Scattered Clouds
12:53 AM 35.6 °F - 23.0 °F 60% 29.91 in 10.0 mi Calm Calm - N/A   Mostly Cloudy
1:13 AM 35.6 °F - 23.0 °F 60% 29.90 in 10.0 mi Calm Calm - N/A   Overcast
1:33 AM 35.6 °F - 23.0 °F 60% 29.89 in 10.0 mi Calm Calm - N/A   Overcast
1:53 AM 35.6 °F - 24.8 °F 65% 29.89 in 10.0 mi Calm Calm - N/A   Mostly Cloudy
2:13 AM 35.6 °F - 24.8 °F 65% 29.88 in 10.0 mi Calm Calm - N/A   Scattered Clouds
2:33 AM 35.6 °F - 24.8 °F 65% 29.88 in 10.0 mi Calm Calm - N/A   Clear
2:53 AM 35.6 °F - 24.8 °F 65% 29.87 in 10.0 mi Calm Calm - N/A   Clear
3:13 AM 35.6 °F - 24.8 °F 65% 29.87 in 10.0 mi Calm Calm - N/A   Clear
3:33 AM 35.6 °F - 24.8 °F 65% 29.87 in 10.0 mi Calm Calm - N/A   Clear
3:53 AM 35.6 °F - 24.8 °F 65% 29.86 in 10.0 mi Calm Calm - N/A   Clear
4:13 AM 35.6 °F - 24.8 °F 65% 29.87 in 10.0 mi Calm Calm - N/A   Clear
4:33 AM 35.6 °F - 24.8 °F 65% 29.87 in 10.0 mi Calm Calm - N/A   Clear
4:53 AM 35.6 °F - 24.8 °F 65% 29.88 in 10.0 mi Calm Calm - N/A   Scattered Clouds
5:13 AM 35.6 °F - 24.8 °F 65% 29.87 in 10.0 mi Calm Calm - N/A   Clear
5:33 AM 33.8 °F - 23.0 °F 65% 29.88 in 10.0 mi Calm Calm - N/A   Clear
5:53 AM 32.0 °F - 23.0 °F 69% 29.89 in 10.0 mi Calm Calm - N/A   Clear
6:13 AM 30.2 °F - 21.2 °F 69% 29.89 in 10.0 mi Calm Calm - N/A   Clear
6:33 AM 28.4 °F - 21.2 °F 74% 29.90 in 10.0 mi Calm Calm - N/A   Clear
6:53 AM 28.4 °F - 21.2 °F 74% 29.90 in 10.0 mi Calm Calm - N/A   Clear
7:13 AM 28.4 °F - 23.0 °F 80% 29.91 in 10.0 mi Calm Calm - N/A   Clear
7:33 AM 28.4 °F - 23.0 °F 80% 29.92 in 10.0 mi Calm Calm - N/A   Clear
7:53 AM 30.2 °F - 23.0 °F 75% 29.93 in 10.0 mi Calm Calm - N/A   Clear
8:13 AM 33.8 °F - 24.8 °F 70% 29.93 in 10.0 mi Calm Calm - N/A   Clear
8:33 AM 35.6 °F 32.8 °F 23.0 °F 60% 29.94 in 10.0 mi NNW 3.5 mph - N/A   Clear
8:53 AM 35.6 °F 32.8 °F 23.0 °F 60% 29.95 in 10.0 mi NNW 3.5 mph - N/A   Clear
9:13 AM 37.4 °F 32.8 °F 23.0 °F 56% 29.94 in 10.0 mi NW 5.8 mph - N/A   Clear
9:33 AM 37.4 °F - 23.0 °F 56% 29.94 in 10.0 mi Calm Calm - N/A   Clear
9:53 AM 37.4 °F - 21.2 °F 52% 29.94 in 10.0 mi Calm Calm - N/A   Clear
10:13 AM 39.2 °F - 21.2 °F 49% 29.94 in 10.0 mi Calm Calm - N/A   Clear
10:33 AM 39.2 °F 34.2 °F 21.2 °F 49% 29.95 in 10.0 mi WNW 6.9 mph - N/A   Clear
10:53 AM 39.2 °F 35.0 °F 19.4 °F 45% 29.95 in 10.0 mi WNW 5.8 mph - N/A   Clear
11:33 AM 41.0 °F 35.8 °F 17.6 °F 39% 29.95 in 10.0 mi WNW 8.1 mph 18.4 mph N/A   Clear
11:53 AM 41.0 °F 33.9 °F 15.8 °F 36% 29.95 in 10.0 mi WNW 12.7 mph 18.4 mph N/A   Clear
12:13 PM 42.8 °F 37.0 °F 14.0 °F 31% 29.96 in 10.0 mi WNW 10.4 mph - N/A   Clear
12:29 PM 42.8 °F 36.6 °F 12.2 °F 29% 29.96 in 10.0 mi WNW 11.5 mph 20.7 mph N/A   Clear
12:35 PM 42.8 °F 38.6 °F 12.2 °F 29% 29.96 in 10.0 mi WNW 6.9 mph 20.7 mph N/A   Clear
12:53 PM - - - N/A% 29.96 in 10.0 mi WNW 10.4 mph 20.7 mph N/A   Clear
1:13 PM 44.6 °F - 10.4 °F 25% 29.97 in 10.0 mi North - - N/A   Clear
1:33 PM 44.6 °F 40.2 °F 12.2 °F 27% 29.97 in 10.0 mi NW 8.1 mph 20.7 mph N/A   Clear
1:53 PM 44.6 °F 40.2 °F 10.4 °F 25% 29.97 in 10.0 mi WNW 8.1 mph - N/A   Clear
2:13 PM 44.6 °F 40.7 °F 10.4 °F 25% 29.97 in 10.0 mi WNW 6.9 mph 20.7 mph N/A   Clear
2:53 PM 42.8 °F 37.5 °F 8.6 °F 25% 29.98 in 10.0 mi NW 9.2 mph 17.3 mph N/A   Clear
3:13 PM 44.6 °F 40.7 °F 10.4 °F 25% 29.98 in 10.0 mi NW 6.9 mph - N/A   Clear
3:33 PM 42.8 °F 38.0 °F 8.6 °F 25% 29.98 in 10.0 mi NW 8.1 mph 17.3 mph N/A   Clear
3:53 PM 42.8 °F 37.5 °F 8.6 °F 25% 29.98 in 10.0 mi NW 9.2 mph 16.1 mph N/A   Clear
4:13 PM 42.8 °F 41.1 °F 8.6 °F 25% 29.98 in 10.0 mi WNW 3.5 mph 16.1 mph N/A   Clear
4:33 PM 42.8 °F 38.6 °F 6.8 °F 23% 29.99 in 10.0 mi WNW 6.9 mph 17.3 mph N/A   Clear
4:53 PM 42.8 °F 38.0 °F 6.8 °F 23% 29.99 in 10.0 mi West 8.1 mph 18.4 mph N/A   Clear
5:13 PM 42.8 °F 38.0 °F 6.8 °F 23% 30.00 in 10.0 mi WNW 8.1 mph 20.7 mph N/A   Clear
5:33 PM 41.0 °F 35.2 °F 3.2 °F 21% 30.01 in 10.0 mi NW 9.2 mph 21.9 mph N/A   Clear
5:53 PM 39.2 °F 33.6 °F 3.2 °F 22% 30.01 in 10.0 mi NNW 8.1 mph 17.3 mph N/A   Clear
6:13 PM 39.2 °F 35.0 °F 3.2 °F 22% 30.02 in 10.0 mi NW 5.8 mph - N/A   Clear
6:53 PM 37.4 °F 31.4 °F 5.0 °F 26% 30.04 in 10.0 mi WNW 8.1 mph - N/A   Clear
7:13 PM 35.6 °F 32.8 °F 6.8 °F 30% 30.04 in 10.0 mi WNW 3.5 mph - N/A   Clear
7:34 PM 33.8 °F 29.6 °F 6.8 °F 32% 30.05 in 10.0 mi NNW 4.6 mph - N/A   Clear
7:53 PM 33.8 °F 29.6 °F 8.6 °F 35% 30.06 in 10.0 mi NW 4.6 mph - N/A   Clear
8:13 PM 32.0 °F - 8.6 °F 38% 30.07 in 10.0 mi Calm Calm - N/A   Clear
8:33 PM 30.2 °F - 8.6 °F 40% 30.08 in 10.0 mi Calm Calm - N/A   Clear
8:53 PM 28.4 °F - 8.6 °F 43% 30.08 in 10.0 mi Calm Calm - N/A   Clear
9:13 PM 26.6 °F - 8.6 °F 47% 30.09 in 10.0 mi Calm Calm - N/A   Clear
9:33 PM 26.6 °F - 8.6 °F 47% 30.10 in 10.0 mi Calm Calm - N/A   Clear
9:53 PM 24.8 °F - 8.6 °F 50% 30.10 in 10.0 mi Calm Calm - N/A   Clear
10:13 PM 24.8 °F - 8.6 °F 50% 30.11 in 10.0 mi Calm Calm - N/A   Clear
10:33 PM 24.8 °F - 8.6 °F 50% 30.12 in 10.0 mi Calm Calm - N/A   Clear
10:53 PM 26.6 °F - 10.4 °F 51% 30.12 in 10.0 mi Calm Calm - N/A   Clear
11:13 PM 24.8 °F - 10.4 °F 54% 30.13 in 10.0 mi Calm Calm - N/A   Clear
11:33 PM 24.8 °F - 10.4 °F 54% 30.13 in 10.0 mi Calm Calm - N/A   Clear
11:53 PM 24.8 °F - 10.4 °F 54% 30.13 in 10.0 mi Calm Calm - N/A   Clear